| time (UTC) | temp C | wind direction | speed KPH | gust KPH | rain 1hr cm | rain 24hr cm | rain mn cm | humidity % | barometer mb |
| 20260906181121 | 31 | 197 | 3.2 | 17.7 | 0.00 | 0.03 | 0.03 | 70 | 1014.9 |
| 20260906180626 | 31 | 163 | 3.2 | 17.7 | 0.00 | 0.03 | 0.03 | 74 | 1015.0 |
| 20260906180132 | 31 | 194 | 4.8 | 12.9 | 0.00 | 0.03 | 0.03 | 72 | 1015.0 |
| 20260906175636 | 30 | 191 | 1.6 | 12.9 | 0.00 | 0.03 | 0.03 | 73 | 1015.1 |
| 20260906175135 | 30 | 148 | 4.8 | 11.3 | 0.00 | 0.03 | 0.03 | 73 | 1015.2 |
| 20260906174619 | 30 | 140 | 3.2 | 8.0 | 0.00 | 0.03 | 0.03 | 75 | 1015.3 |
| 20260906174136 | 30 | 246 | 1.6 | 9.7 | 0.00 | 0.03 | 0.03 | 76 | 1015.3 |
| 20260906173619 | 30 | 221 | 4.8 | 9.7 | 0.00 | 0.03 | 0.03 | 77 | 1015.4 |
| 20260906173158 | 30 | 237 | 3.2 | 8.0 | 0.00 | 0.03 | 0.03 | 75 | 1015.5 |
| 20260906172620 | 30 | 107 | 1.6 | 9.7 | 0.00 | 0.03 | 0.03 | 77 | 1015.5 |
| 20260906172121 | 29 | 192 | 3.2 | 8.0 | 0.00 | 0.03 | 0.03 | 78 | 1015.5 |
| 20260906171625 | 29 | 265 | 4.8 | 8.0 | 0.00 | 0.03 | 0.03 | 78 | 1015.6 |
| 20260906171125 | 28 | 172 | 4.8 | 9.7 | 0.00 | 0.03 | 0.03 | 79 | 1015.7 |
| 20260906170630 | 28 | 168 | 4.8 | 9.7 | 0.00 | 0.03 | 0.03 | 80 | 1015.8 |
| 20260906170131 | 28 | 187 | 3.2 | 11.3 | 0.00 | 0.03 | 0.03 | 82 | 1015.8 |
| 20260906165618 | 28 | 181 | 4.8 | 11.3 | 0.00 | 0.03 | 0.03 | 83 | 1015.7 |
| 20260906165118 | 27 | 150 | 1.6 | 9.7 | 0.00 | 0.03 | 0.03 | 84 | 1015.8 |
| 20260906164624 | 27 | 167 | 3.2 | 9.7 | 0.03 | 0.03 | 0.03 | 85 | 1016.0 |
| 20260906164121 | 27 | 135 | 1.6 | 8.0 | 0.03 | 0.03 | 0.03 | 87 | 1015.9 |
| 20260906163623 | 27 | 135 | 3.2 | 8.0 | 0.03 | 0.03 | 0.03 | 87 | 1016.2 |
| 20260906163121 | 27 | 138 | 4.8 | 8.0 | 0.03 | 0.03 | 0.03 | 88 | 1016.2 |
| 20260906162624 | 26 | 90 | 1.6 | 8.0 | 0.03 | 0.03 | 0.03 | 90 | 1016.0 |
| 20260906162122 | 26 | 223 | 0.0 | 3.2 | 0.03 | 0.03 | 0.03 | 91 | 1016.3 |
| 20260906161626 | 26 | 131 | 1.6 | 3.2 | 0.03 | 0.03 | 0.03 | 90 | 1016.2 |
| 20260906161122 | 26 | 131 | 0.0 | 3.2 | 0.03 | 0.03 | 0.03 | 90 | 1016.3 |
| 20260906160626 | 26 | 131 | 0.0 | 3.2 | 0.03 | 0.03 | 0.03 | 90 | 1016.5 |
| 20260906160130 | 26 | 131 | 0.0 | 3.2 | 0.03 | 0.03 | 0.03 | 90 | 1016.6 |
| 20260906155634 | 26 | 131 | 0.0 | 3.2 | 0.03 | 0.03 | 0.03 | 88 | 1016.5 |
| 20260906155131 | 27 | 131 | 1.6 | 3.2 | 0.03 | 0.03 | 0.03 | 87 | 1016.5 |
| 20260906154634 | 27 | 131 | 0.0 | 3.2 | 0.00 | 0.00 | 0.00 | 85 | 1016.5 |
| 20260906154134 | 27 | 233 | 0.0 | 3.2 | 0.00 | 0.00 | 0.00 | 85 | 1016.4 |
| 20260906153621 | 27 | 233 | 1.6 | 9.7 | 0.00 | 0.00 | 0.00 | 84 | 1016.4 |
| 20260906153140 | 27 | 131 | 3.2 | 9.7 | 0.00 | 0.00 | 0.00 | 85 | 1016.6 |
| 20260906152642 | 27 | 197 | 3.2 | 9.7 | 0.00 | 0.00 | 0.00 | 85 | 1016.6 |
| 20260906152118 | 27 | 238 | 1.6 | 9.7 | 0.00 | 0.00 | 0.00 | 85 | 1016.6 |
| 20260906151622 | 27 | 283 | 6.4 | 9.7 | 0.00 | 0.00 | 0.00 | 85 | 1016.8 |
| 20260906151119 | 27 | 231 | 1.6 | 8.0 | 0.00 | 0.00 | 0.00 | 85 | 1016.1 |
| 20260906150624 | 27 | 176 | 1.6 | 9.7 | 0.00 | 0.00 | 0.00 | 85 | 1016.0 |
| 20260906150124 | 27 | 190 | 1.6 | 9.7 | 0.00 | 0.00 | 0.00 | 84 | 1016.0 |
| 20260906145627 | 27 | 112 | 0.0 | 12.9 | 0.00 | 0.00 | 0.00 | 85 | 1015.9 |
| 20260906145125 | 27 | 181 | 6.4 | 12.9 | 0.00 | 0.00 | 0.00 | 85 | 1015.8 |
| 20260906144648 | 27 | 221 | 1.6 | 12.9 | 0.00 | 0.00 | 0.00 | 85 | 1015.8 |
| 20260906144126 | 27 | 156 | 3.2 | 11.3 | 0.00 | 0.00 | 0.00 | 85 | 1015.6 |
| 20260906143633 | 26 | 142 | 3.2 | 12.9 | 0.00 | 0.00 | 0.00 | 85 | 1015.7 |
| 20260906143117 | 26 | 146 | 3.2 | 12.9 | 0.00 | 0.00 | 0.00 | 86 | 1015.7 |
| 20260906142621 | 26 | 156 | 3.2 | 12.9 | 0.00 | 0.00 | 0.00 | 86 | 1015.8 |
| 20260906142118 | 26 | 216 | 4.8 | 12.9 | 0.00 | 0.00 | 0.00 | 86 | 1015.8 |
| 20260906141626 | 26 | 81 | 3.2 | 9.7 | 0.00 | 0.00 | 0.00 | 86 | 1015.9 |
| 20260906141127 | 26 | 119 | 4.8 | 11.3 | 0.00 | 0.00 | 0.00 | 86 | 1015.9 |
| 20260906140631 | 26 | 171 | 8.0 | 11.3 | 0.00 | 0.00 | 0.00 | 86 | 1016.0 |
| 20260906140127 | 26 | 92 | 3.2 | 9.7 | 0.00 | 0.00 | 0.00 | 86 | 1016.0 |
| 20260906135620 | 26 | 132 | 4.8 | 8.0 | 0.00 | 0.00 | 0.00 | 86 | 1016.0 |
| 20260906135120 | 26 | 60 | 1.6 | 9.7 | 0.00 | 0.00 | 0.00 | 86 | 1016.1 |
| 20260906134648 | 26 | 140 | 6.4 | 9.7 | 0.00 | 0.00 | 0.00 | 86 | 1016.0 |
| 20260906134124 | 26 | 154 | 4.8 | 9.7 | 0.00 | 0.00 | 0.00 | 86 | 1016.0 |
| 20260906133628 | 26 | 125 | 1.6 | 8.0 | 0.00 | 0.00 | 0.00 | 87 | 1016.0 |
| 20260906133126 | 26 | 209 | 3.2 | 9.7 | 0.00 | 0.00 | 0.00 | 87 | 1015.9 |
| 20260906132630 | 26 | 119 | 1.6 | 12.9 | 0.00 | 0.00 | 0.00 | 87 | 1016.0 |
| 20260906132127 | 26 | 106 | 1.6 | 12.9 | 0.00 | 0.00 | 0.00 | 88 | 1015.9 |
| 20260906131633 | 26 | 114 | 6.4 | 11.3 | 0.00 | 0.00 | 0.00 | 88 | 1015.9 |
| 20260906131151 | 26 | 162 | 3.2 | 11.3 | 0.00 | 0.00 | 0.00 | 88 | 1015.9 |
| 20260906130632 | 26 | 125 | 3.2 | 9.7 | 0.00 | 0.00 | 0.00 | 88 | 1015.9 |
| 20260906130134 | 26 | 102 | 3.2 | 6.4 | 0.00 | 0.00 | 0.00 | 88 | 1016.0 |
| 20260906125658 | 26 | 9 | 3.2 | 8.0 | 0.00 | 0.00 | 0.00 | 88 | 1015.9 |
| 20260906125136 | 26 | 53 | 1.6 | 8.0 | 0.00 | 0.00 | 0.00 | 88 | 1015.8 |
| 20260906124625 | 26 | 52 | 1.6 | 8.0 | 0.00 | 0.00 | 0.00 | 88 | 1015.8 |
| 20260906124144 | 26 | 54 | 3.2 | 9.7 | 0.00 | 0.00 | 0.00 | 88 | 1015.7 |
| 20260906123631 | 25 | 111 | 3.2 | 9.7 | 0.00 | 0.00 | 0.00 | 88 | 1015.7 |
| 20260906123132 | 25 | 137 | 1.6 | 9.7 | 0.00 | 0.00 | 0.00 | 88 | 1015.6 |
| 20260906122620 | 25 | 150 | 0.0 | 11.3 | 0.00 | 0.00 | 0.00 | 88 | 1015.5 |
| 20260906122119 | 25 | 174 | 3.2 | 11.3 | 0.00 | 0.00 | 0.00 | 88 | 1015.4 |
| 20260906121624 | 25 | 140 | 1.6 | 6.4 | 0.00 | 0.00 | 0.00 | 88 | 1015.4 |
| 20260906121121 | 25 | 173 | 1.6 | 6.4 | 0.00 | 0.00 | 0.00 | 87 | 1015.3 |
| 20260906120625 | 25 | 104 | 0.0 | 6.4 | 0.00 | 0.00 | 0.00 | 87 | 1015.3 |
| 20260906120127 | 25 | 125 | 1.6 | 8.0 | 0.00 | 0.00 | 0.00 | 87 | 1015.2 |
| 20260906115629 | 25 | 173 | 0.0 | 6.4 | 0.00 | 0.00 | 0.00 | 87 | 1015.2 |
| 20260906115127 | 25 | 288 | 3.2 | 8.0 | 0.00 | 0.00 | 0.00 | 87 | 1015.0 |
| 20260906114630 | 26 | 359 | 0.0 | 6.4 | 0.00 | 0.00 | 0.00 | 87 | 1014.9 |
| 20260906114130 | 26 | 192 | 1.6 | 9.7 | 0.00 | 0.00 | 0.00 | 87 | 1014.9 |
| 20260906113618 | 26 | 151 | 3.2 | 9.7 | 0.00 | 0.00 | 0.00 | 87 | 1014.9 |
| 20260906113120 | 26 | 119 | 1.6 | 8.0 | 0.00 | 0.00 | 0.00 | 87 | 1014.9 |
| 20260906112623 | 26 | 48 | 0.0 | 12.9 | 0.00 | 0.00 | 0.00 | 86 | 1014.8 |
| 20260906112122 | 26 | 150 | 1.6 | 12.9 | 0.00 | 0.00 | 0.00 | 86 | 1014.9 |
| 20260906111625 | 26 | 163 | 4.8 | 8.0 | 0.00 | 0.00 | 0.00 | 86 | 1015.0 |
| 20260906111126 | 26 | 79 | 3.2 | 8.0 | 0.00 | 0.00 | 0.00 | 87 | 1015.1 |
| 20260906110621 | 26 | 127 | 1.6 | 9.7 | 0.00 | 0.00 | 0.00 | 87 | 1015.0 |
| 20260906110125 | 26 | 166 | 4.8 | 9.7 | 0.00 | 0.00 | 0.00 | 87 | 1015.0 |
| 20260906105628 | 26 | 136 | 0.0 | 9.7 | 0.00 | 0.00 | 0.00 | 87 | 1015.0 |
| 20260906105124 | 26 | 150 | 3.2 | 8.0 | 0.00 | 0.00 | 0.00 | 87 | 1014.9 |
| 20260906104627 | 26 | 155 | 4.8 | 8.0 | 0.00 | 0.00 | 0.00 | 87 | 1014.9 |
| 20260906104148 | 26 | 83 | 0.0 | 6.4 | 0.00 | 0.00 | 0.00 | 87 | 1014.8 |
| 20260906103630 | 26 | 77 | 1.6 | 4.8 | 0.00 | 0.00 | 0.00 | 86 | 1014.8 |
| 20260906103127 | 26 | 98 | 1.6 | 4.8 | 0.00 | 0.00 | 0.00 | 86 | 1014.7 |
| 20260906102631 | 26 | 45 | 0.0 | 4.8 | 0.00 | 0.00 | 0.00 | 86 | 1014.7 |
| 20260906102113 | 26 | 83 | 1.6 | 4.8 | 0.00 | 0.00 | 0.00 | 86 | 1014.6 |
| 20260906101619 | 26 | 77 | 1.6 | 4.8 | 0.00 | 0.00 | 0.00 | 86 | 1014.6 |
| 20260906101135 | 26 | 358 | 1.6 | 4.8 | 0.00 | 0.00 | 0.00 | 86 | 1014.6 |
| 20260906100620 | 26 | 73 | 0.0 | 6.4 | 0.00 | 0.00 | 0.00 | 85 | 1014.6 |
| 20260906100138 | 26 | 90 | 0.0 | 6.4 | 0.00 | 0.00 | 0.00 | 85 | 1014.6 |
| 20260906095621 | 26 | 77 | 3.2 | 6.4 | 0.00 | 0.00 | 0.00 | 85 | 1014.5 |
| 20260906095145 | 26 | 55 | 3.2 | 6.4 | 0.00 | 0.00 | 0.00 | 85 | 1014.5 |
| 20260906094647 | 26 | 106 | 0.0 | 8.0 | 0.00 | 0.00 | 0.00 | 84 | 1014.5 |
| 20260906094144 | 26 | 109 | 1.6 | 8.0 | 0.00 | 0.00 | 0.00 | 84 | 1014.6 |
| 20260906093627 | 26 | 76 | 3.2 | 6.4 | 0.00 | 0.00 | 0.00 | 84 | 1014.6 |
| 20260906093124 | 26 | 76 | 3.2 | 6.4 | 0.00 | 0.00 | 0.00 | 84 | 1014.7 |
| 20260906092629 | 26 | 119 | 0.0 | 1.6 | 0.00 | 0.00 | 0.00 | 84 | 1014.6 |
| 20260906092127 | 26 | 102 | 0.0 | 4.8 | 0.00 | 0.00 | 0.00 | 84 | 1014.6 |
| 20260906091631 | 26 | 102 | 1.6 | 4.8 | 0.00 | 0.00 | 0.00 | 84 | 1014.6 |
| 20260906091130 | 26 | 92 | 1.6 | 3.2 | 0.00 | 0.00 | 0.00 | 83 | 1014.6 |
| 20260906090633 | 26 | 94 | 0.0 | 8.0 | 0.00 | 0.00 | 0.00 | 83 | 1014.6 |
| 20260906090152 | 26 | 190 | 0.0 | 8.0 | 0.00 | 0.00 | 0.00 | 83 | 1014.7 |
| 20260906085652 | 26 | 102 | 1.6 | 3.2 | 0.00 | 0.00 | 0.00 | 83 | 1014.7 |
| 20260906085129 | 26 | 99 | 1.6 | 6.4 | 0.00 | 0.00 | 0.00 | 83 | 1014.6 |
| 20260906084621 | 26 | 99 | 1.6 | 11.3 | 0.00 | 0.00 | 0.00 | 83 | 1014.6 |
| 20260906084118 | 26 | 9 | 1.6 | 6.4 | 0.00 | 0.00 | 0.00 | 83 | 1014.5 |
| 20260906083624 | 26 | 43 | 0.0 | 6.4 | 0.00 | 0.00 | 0.00 | 83 | 1014.6 |
| 20260906083129 | 26 | 117 | 1.6 | 6.4 | 0.00 | 0.00 | 0.00 | 83 | 1014.5 |
| 20260906082632 | 27 | 73 | 0.0 | 6.4 | 0.00 | 0.00 | 0.00 | 83 | 1014.5 |
| 20260906082130 | 27 | 88 | 1.6 | 6.4 | 0.00 | 0.00 | 0.00 | 82 | 1014.4 |
| 20260906081616 | 27 | 82 | 1.6 | 6.4 | 0.00 | 0.00 | 0.00 | 82 | 1014.5 |
| 20260906081136 | 27 | 65 | 1.6 | 6.4 | 0.00 | 0.00 | 0.00 | 82 | 1014.5 |
| 20260906080621 | 27 | 200 | 0.0 | 4.8 | 0.00 | 0.00 | 0.00 | 82 | 1014.5 |
| 20260906080119 | 27 | 200 | 1.6 | 4.8 | 0.00 | 0.00 | 0.00 | 82 | 1014.4 |
| 20260906075639 | 27 | 258 | 1.6 | 4.8 | 0.00 | 0.00 | 0.00 | 82 | 1014.4 |
| 20260906075138 | 27 | 30 | 0.0 | 9.7 | 0.00 | 0.00 | 0.00 | 82 | 1014.3 |
| 20260906074643 | 27 | 102 | 4.8 | 9.7 | 0.00 | 0.00 | 0.00 | 81 | 1014.2 |
| 20260906074123 | 27 | 152 | 3.2 | 12.9 | 0.00 | 0.00 | 0.00 | 81 | 1014.2 |
| 20260906073628 | 27 | 195 | 0.0 | 12.9 | 0.00 | 0.00 | 0.00 | 81 | 1014.2 |
| 20260906073128 | 27 | 175 | 1.6 | 9.7 | 0.00 | 0.00 | 0.00 | 81 | 1014.1 |
| 20260906072653 | 27 | 135 | 3.2 | 9.7 | 0.00 | 0.00 | 0.00 | 81 | 1014.2 |
| 20260906072155 | 27 | 239 | 1.6 | 11.3 | 0.00 | 0.00 | 0.00 | 81 | 1014.3 |
| 20260906071617 | 27 | 146 | 4.8 | 11.3 | 0.00 | 0.00 | 0.00 | 81 | 1014.3 |
| 20260906071116 | 27 | 129 | 4.8 | 9.7 | 0.00 | 0.00 | 0.00 | 81 | 1014.3 |
| 20260906070620 | 27 | 38 | 1.6 | 8.0 | 0.00 | 0.00 | 0.00 | 81 | 1014.4 |
| 20260906070121 | 27 | 161 | 0.0 | 8.0 | 0.00 | 0.00 | 0.00 | 81 | 1014.4 |
| 20260906065624 | 27 | 182 | 1.6 | 8.0 | 0.00 | 0.00 | 0.00 | 82 | 1014.5 |
| 20260906065120 | 27 | 29 | 1.6 | 6.4 | 0.00 | 0.00 | 0.00 | 82 | 1014.5 |
| 20260906064628 | 27 | 125 | 0.0 | 9.7 | 0.00 | 0.00 | 0.00 | 82 | 1014.5 |
| 20260906064126 | 27 | 125 | 3.2 | 12.9 | 0.00 | 0.00 | 0.00 | 82 | 1014.5 |
| 20260906063635 | 27 | 186 | 1.6 | 12.9 | 0.00 | 0.00 | 0.00 | 82 | 1014.5 |
| 20260906063133 | 27 | 112 | 3.2 | 11.3 | 0.00 | 0.00 | 0.00 | 82 | 1014.5 |
| 20260906062617 | 27 | 23 | 1.6 | 9.7 | 0.00 | 0.00 | 0.00 | 82 | 1014.7 |
| 20260906062134 | 27 | 48 | 3.2 | 9.7 | 0.00 | 0.00 | 0.00 | 82 | 1014.7 |
| 20260906061618 | 27 | 208 | 1.6 | 8.0 | 0.00 | 0.00 | 0.00 | 83 | 1014.6 |
| 20260906061117 | 27 | 60 | 4.8 | 8.0 | 0.00 | 0.00 | 0.00 | 82 | 1014.6 |
| 20260906060623 | 27 | 346 | 4.8 | 8.0 | 0.00 | 0.00 | 0.00 | 82 | 1014.6 |
| 20260906060122 | 27 | 111 | 4.8 | 8.0 | 0.00 | 0.00 | 0.00 | 82 | 1014.5 |
| 20260906055649 | 27 | 125 | 3.2 | 8.0 | 0.00 | 0.00 | 0.00 | 82 | 1014.6 |
| 20260906055129 | 27 | 63 | 1.6 | 9.7 | 0.00 | 0.00 | 0.00 | 82 | 1014.5 |
| 20260906054632 | 27 | 138 | 3.2 | 9.7 | 0.00 | 0.00 | 0.00 | 82 | 1014.5 |
| 20260906054131 | 27 | 28 | 3.2 | 11.3 | 0.00 | 0.00 | 0.00 | 81 | 1014.5 |
| 20260906053638 | 28 | 110 | 1.6 | 11.3 | 0.00 | 0.00 | 0.00 | 81 | 1014.5 |
| 20260906053136 | 28 | 82 | 3.2 | 12.9 | 0.00 | 0.00 | 0.00 | 81 | 1015.5 |
| 20260906052618 | 28 | 145 | 3.2 | 12.9 | 0.00 | 0.00 | 0.00 | 81 | 1015.4 |
| 20260906052119 | 28 | 158 | 1.6 | 9.7 | 0.00 | 0.00 | 0.00 | 80 | 1015.4 |
| 20260906051622 | 28 | 345 | 1.6 | 11.3 | 0.00 | 0.00 | 0.00 | 80 | 1015.4 |
| 20260906051140 | 28 | 83 | 1.6 | 11.3 | 0.00 | 0.00 | 0.00 | 80 | 1015.5 |
| 20260906050625 | 28 | 92 | 1.6 | 11.3 | 0.00 | 0.00 | 0.00 | 79 | 1015.5 |
| 20260906050123 | 28 | 88 | 4.8 | 11.3 | 0.00 | 0.00 | 0.00 | 79 | 1015.6 |
| 20260906045617 | 28 | 53 | 1.6 | 11.3 | 0.00 | 0.00 | 0.00 | 78 | 1015.6 |
| 20260906045136 | 28 | 54 | 4.8 | 11.3 | 0.00 | 0.00 | 0.00 | 78 | 1015.6 |
| 20260906044641 | 28 | 94 | 3.2 | 8.0 | 0.00 | 0.00 | 0.00 | 78 | 1015.5 |
| 20260906044118 | 28 | 60 | 1.6 | 12.9 | 0.00 | 0.00 | 0.00 | 77 | 1015.6 |
| 20260906043622 | 28 | 29 | 1.6 | 12.9 | 0.00 | 0.00 | 0.00 | 77 | 1015.5 |
| 20260906043120 | 29 | 63 | 4.8 | 11.3 | 0.00 | 0.00 | 0.00 | 76 | 1015.6 |
| 20260906042622 | 29 | 102 | 1.6 | 8.0 | 0.00 | 0.00 | 0.00 | 76 | 1015.6 |
| 20260906042120 | 29 | 14 | 1.6 | 9.7 | 0.00 | 0.00 | 0.00 | 76 | 1015.6 |
| 20260906041640 | 29 | 50 | 1.6 | 12.9 | 0.00 | 0.00 | 0.00 | 75 | 1015.6 |
| 20260906041137 | 29 | 74 | 4.8 | 12.9 | 0.00 | 0.00 | 0.00 | 75 | 1015.6 |
| 20260906040623 | 29 | 157 | 3.2 | 8.0 | 0.00 | 0.00 | 0.00 | 75 | 1015.6 |
| 20260906040119 | 29 | 88 | 3.2 | 8.0 | 0.00 | 0.00 | 0.00 | 74 | 1015.6 |
| 20260906035622 | 29 | 68 | 1.6 | 12.9 | 0.00 | 0.00 | 0.00 | 74 | 1015.6 |
| 20260906035140 | 30 | 88 | 4.8 | 12.9 | 0.00 | 0.00 | 0.00 | 74 | 1015.6 |
| 20260906034622 | 30 | 87 | 3.2 | 12.9 | 0.00 | 0.00 | 0.00 | 74 | 1015.5 |
| 20260906034119 | 30 | 85 | 3.2 | 11.3 | 0.00 | 0.00 | 0.00 | 74 | 1015.5 |
| 20260906033622 | 30 | 88 | 1.6 | 11.3 | 0.00 | 0.00 | 0.00 | 74 | 1015.6 |
| 20260906033142 | 30 | 53 | 3.2 | 8.0 | 0.00 | 0.00 | 0.00 | 74 | 1015.4 |
| 20260906032625 | 30 | 104 | 1.6 | 9.7 | 0.00 | 0.00 | 0.00 | 73 | 1015.3 |
| 20260906032123 | 30 | 9 | 3.2 | 9.7 | 0.00 | 0.00 | 0.00 | 73 | 1015.4 |
| 20260906031626 | 30 | 72 | 3.2 | 11.3 | 0.00 | 0.00 | 0.00 | 73 | 1015.3 |
| 20260906031123 | 30 | 136 | 4.8 | 11.3 | 0.00 | 0.00 | 0.00 | 73 | 1015.2 |
| 20260906030626 | 30 | 86 | 3.2 | 11.3 | 0.00 | 0.00 | 0.00 | 74 | 1015.2 |
| 20260906030124 | 30 | 65 | 3.2 | 12.9 | 0.00 | 0.00 | 0.00 | 74 | 1015.0 |
| 20260906025629 | 30 | 64 | 6.4 | 14.5 | 0.00 | 0.00 | 0.00 | 74 | 1014.9 |
| 20260906025151 | 30 | 123 | 4.8 | 16.1 | 0.00 | 0.00 | 0.00 | 74 | 1014.8 |
| 20260906024620 | 30 | 117 | 4.8 | 16.1 | 0.00 | 0.00 | 0.00 | 74 | 1014.8 |
| 20260906024118 | 30 | 105 | 1.6 | 8.0 | 0.00 | 0.00 | 0.00 | 74 | 1014.7 |
| 20260906023623 | 30 | 85 | 1.6 | 9.7 | 0.00 | 0.00 | 0.00 | 74 | 1014.6 |
| 20260906023141 | 30 | 69 | 3.2 | 9.7 | 0.00 | 0.00 | 0.00 | 74 | 1014.6 |
| 20260906022646 | 30 | 181 | 3.2 | 12.9 | 0.00 | 0.00 | 0.00 | 73 | 1014.6 |
| 20260906022122 | 30 | 66 | 6.4 | 12.9 | 0.00 | 0.00 | 0.00 | 74 | 1014.6 |
| 20260906021625 | 30 | 94 | 3.2 | 12.9 | 0.00 | 0.00 | 0.00 | 73 | 1014.4 |
| 20260906021123 | 30 | 76 | 3.2 | 9.7 | 0.00 | 0.00 | 0.00 | 73 | 1014.3 |
| 20260906020625 | 30 | 119 | 4.8 | 9.7 | 0.00 | 0.00 | 0.00 | 73 | 1014.3 |
| 20260906020131 | 31 | 75 | 3.2 | 12.9 | 0.00 | 0.00 | 0.00 | 73 | 1014.1 |
| 20260906015635 | 31 | 93 | 0.0 | 12.9 | 0.00 | 0.00 | 0.00 | 73 | 1014.1 |
| 20260906015131 | 31 | 67 | 3.2 | 9.7 | 0.00 | 0.00 | 0.00 | 72 | 1014.0 |
| 20260906014617 | 31 | 71 | 3.2 | 9.7 | 0.00 | 0.00 | 0.00 | 72 | 1014.0 |
| 20260906014118 | 31 | 42 | 3.2 | 8.0 | 0.00 | 0.00 | 0.00 | 72 | 1013.9 |
| 20260906013622 | 31 | 87 | 3.2 | 6.4 | 0.00 | 0.00 | 0.00 | 72 | 1013.8 |
| 20260906013122 | 31 | 100 | 1.6 | 6.4 | 0.00 | 0.00 | 0.00 | 71 | 1013.7 |
| 20260906012628 | 31 | 85 | 1.6 | 6.4 | 0.00 | 0.00 | 0.00 | 71 | 1013.7 |
| 20260906012126 | 31 | 144 | 0.0 | 6.4 | 0.00 | 0.00 | 0.00 | 71 | 1013.7 |
| 20260906011635 | 31 | 87 | 1.6 | 8.0 | 0.00 | 0.00 | 0.00 | 70 | 1013.7 |
| 20260906011133 | 31 | 46 | 3.2 | 8.0 | 0.00 | 0.00 | 0.00 | 70 | 1013.7 |
| 20260906010620 | 31 | 139 | 4.8 | 19.3 | 0.00 | 0.00 | 0.00 | 69 | 1013.6 |
| 20260906010116 | 31 | 90 | 3.2 | 19.3 | 0.00 | 0.00 | 0.00 | 69 | 1013.5 |
| 20260906005619 | 31 | 108 | 4.8 | 14.5 | 0.00 | 0.00 | 0.00 | 68 | 1013.5 |
| 20260906005120 | 32 | 149 | 4.8 | 14.5 | 0.00 | 0.00 | 0.00 | 68 | 1013.4 |
| 20260906004628 | 32 | 125 | 0.0 | 11.3 | 0.00 | 0.00 | 0.00 | 68 | 1013.5 |
| 20260906004126 | 32 | 113 | 4.8 | 9.7 | 0.00 | 0.00 | 0.00 | 68 | 1013.6 |
| 20260906003629 | 32 | 84 | 3.2 | 9.7 | 0.00 | 0.00 | 0.00 | 67 | 1013.5 |
| 20260906003125 | 32 | 109 | 4.8 | 9.7 | 0.00 | 0.00 | 0.00 | 67 | 1013.5 |
| 20260906002630 | 32 | 59 | 1.6 | 12.9 | 0.00 | 0.00 | 0.00 | 66 | 1013.4 |
| 20260906002132 | 32 | 127 | 3.2 | 12.9 | 0.00 | 0.00 | 0.00 | 66 | 1013.4 |
| 20260906001636 | 33 | 122 | 6.4 | 11.3 | 0.00 | 0.00 | 0.00 | 65 | 1013.3 |
| 20260906001133 | 33 | 151 | 3.2 | 11.3 | 0.00 | 0.00 | 0.00 | 65 | 1013.2 |
| 20260906000639 | 33 | 92 | 1.6 | 9.7 | 0.00 | 0.00 | 0.00 | 65 | 1013.2 |
| 20260906000123 | 33 | 166 | 3.2 | 11.3 | 0.00 | 0.00 | 0.00 | 64 | 1013.2 |
| 20260905235628 | 33 | 163 | 1.6 | 11.3 | 0.00 | 0.00 | 0.00 | 63 | 1013.2 |
| 20260905235125 | 33 | 96 | 1.6 | 8.0 | 0.00 | 0.00 | 0.00 | 64 | 1013.2 |
| 20260905234646 | 33 | 186 | 3.2 | 8.0 | 0.00 | 0.00 | 0.00 | 63 | 1013.3 |
| 20260905234123 | 33 | 19 | 0.0 | 8.0 | 0.00 | 0.00 | 0.00 | 63 | 1013.2 |
| 20260905233648 | 33 | 63 | 3.2 | 12.9 | 0.00 | 0.00 | 0.00 | 63 | 1013.2 |
| 20260905233130 | 33 | 202 | 3.2 | 12.9 | 0.00 | 0.00 | 0.00 | 62 | 1013.2 |
| 20260905232633 | 33 | 196 | 6.4 | 11.3 | 0.00 | 0.00 | 0.00 | 61 | 1013.2 |
| 20260905232153 | 34 | 97 | 3.2 | 9.7 | 0.00 | 0.00 | 0.00 | 62 | 1013.2 |
| 20260905231620 | 33 | 148 | 1.6 | 8.0 | 0.00 | 0.00 | 0.00 | 62 | 1013.2 |
| 20260905231140 | 33 | 174 | 1.6 | 8.0 | 0.00 | 0.00 | 0.00 | 61 | 1013.2 |
| 20260905230625 | 33 | 194 | 1.6 | 11.3 | 0.00 | 0.00 | 0.00 | 61 | 1013.2 |
| 20260905230124 | 34 | 125 | 4.8 | 16.1 | 0.00 | 0.00 | 0.00 | 60 | 1013.2 |
| 20260905225627 | 33 | 36 | 4.8 | 16.1 | 0.00 | 0.00 | 0.00 | 61 | 1013.2 |
| 20260905225126 | 33 | 125 | 4.8 | 12.9 | 0.00 | 0.00 | 0.00 | 61 | 1013.2 |
| 20260905224632 | 33 | 175 | 3.2 | 12.9 | 0.00 | 0.00 | 0.00 | 61 | 1013.2 |
| 20260905224128 | 33 | 137 | 6.4 | 14.5 | 0.00 | 0.00 | 0.00 | 62 | 1013.2 |
| 20260905223633 | 33 | 107 | 3.2 | 19.3 | 0.00 | 0.00 | 0.00 | 62 | 1013.1 |
| 20260905223131 | 33 | 217 | 8.0 | 19.3 | 0.00 | 0.00 | 0.00 | 61 | 1013.1 |
| 20260905222636 | 33 | 71 | 6.4 | 19.3 | 0.00 | 0.00 | 0.00 | 61 | 1013.0 |
| 20260905222114 | 33 | 55 | 3.2 | 19.3 | 0.00 | 0.00 | 0.00 | 62 | 1012.9 |
| 20260905221642 | 33 | 216 | 6.4 | 12.9 | 0.00 | 0.00 | 0.00 | 61 | 1012.9 |
| 20260905221120 | 33 | 125 | 6.4 | 14.5 | 0.00 | 0.00 | 0.00 | 62 | 1012.7 |
| 20260905220631 | 33 | 103 | 6.4 | 17.7 | 0.00 | 0.00 | 0.00 | 61 | 1012.7 |
| 20260905220133 | 33 | 176 | 9.7 | 17.7 | 0.00 | 0.00 | 0.00 | 61 | 1012.7 |
| 20260905215616 | 33 | 150 | 9.7 | 17.7 | 0.00 | 0.00 | 0.00 | 60 | 1012.8 |
| 20260905215132 | 33 | 112 | 8.0 | 17.7 | 0.00 | 0.00 | 0.00 | 60 | 1012.9 |
| 20260905214656 | 33 | 136 | 8.0 | 12.9 | 0.00 | 0.00 | 0.00 | 60 | 1012.9 |
| 20260905214152 | 33 | 99 | 4.8 | 17.7 | 0.00 | 0.00 | 0.00 | 61 | 1013.0 |
| 20260905213616 | 33 | 151 | 8.0 | 17.7 | 0.00 | 0.00 | 0.00 | 61 | 1013.1 |
| 20260905213139 | 33 | 215 | 4.8 | 19.3 | 0.00 | 0.00 | 0.00 | 61 | 1013.1 |
| 20260905212622 | 33 | 96 | 6.4 | 19.3 | 0.00 | 0.00 | 0.00 | 61 | 1013.2 |
| 20260905212122 | 33 | 152 | 4.8 | 20.9 | 0.00 | 0.00 | 0.00 | 61 | 1013.2 |
| 20260905211625 | 33 | 108 | 9.7 | 22.5 | 0.00 | 0.00 | 0.00 | 59 | 1013.2 |
| 20260905211124 | 33 | 106 | 4.8 | 22.5 | 0.00 | 0.00 | 0.00 | 59 | 1013.3 |
| 20260905210627 | 33 | 139 | 11.3 | 19.3 | 0.00 | 0.00 | 0.00 | 58 | 1013.5 |
| 20260905210148 | 33 | 201 | 6.4 | 11.3 | 0.00 | 0.00 | 0.00 | 59 | 1013.6 |
| 20260905205629 | 33 | 175 | 6.4 | 14.5 | 0.00 | 0.00 | 0.00 | 58 | 1013.7 |
| 20260905205147 | 33 | 175 | 4.8 | 22.5 | 0.00 | 0.00 | 0.00 | 58 | 1013.8 |
| 20260905204630 | 33 | 123 | 8.0 | 22.5 | 0.00 | 0.00 | 0.00 | 58 | 1013.9 |
| 20260905204128 | 33 | 92 | 9.7 | 17.7 | 0.00 | 0.00 | 0.00 | 58 | 1014.0 |
| 20260905203613 | 33 | 164 | 6.4 | 17.7 | 0.00 | 0.00 | 0.00 | 58 | 1014.2 |
| 20260905203116 | 33 | 112 | 6.4 | 17.7 | 0.00 | 0.00 | 0.00 | 58 | 1014.3 |
| 20260905202622 | 33 | 90 | 8.0 | 17.7 | 0.00 | 0.00 | 0.00 | 58 | 1014.4 |
| 20260905202118 | 33 | 201 | 8.0 | 17.7 | 0.00 | 0.00 | 0.00 | 56 | 1014.4 |
| 20260905201625 | 33 | 53 | 1.6 | 12.9 | 0.00 | 0.00 | 0.00 | 58 | 1014.6 |
| 20260905201125 | 33 | 81 | 6.4 | 12.9 | 0.00 | 0.00 | 0.00 | 60 | 1014.7 |
| 20260905200632 | 32 | 61 | 4.8 | 20.9 | 0.00 | 0.00 | 0.00 | 61 | 1014.9 |
| 20260905200119 | 32 | 175 | 4.8 | 20.9 | 0.00 | 0.00 | 0.00 | 61 | 1015.1 |
| 20260905195622 | 32 | 70 | 9.7 | 17.7 | 0.00 | 0.00 | 0.00 | 59 | 1015.2 |
| 20260905195119 | 32 | 56 | 8.0 | 20.9 | 0.00 | 0.00 | 0.00 | 60 | 1015.3 |
| 20260905194623 | 32 | 90 | 6.4 | 22.5 | 0.00 | 0.00 | 0.00 | 60 | 1015.4 |
| 20260905194122 | 32 | 92 | 9.7 | 24.1 | 0.00 | 0.00 | 0.00 | 58 | 1015.4 |
| 20260905193623 | 32 | 203 | 6.4 | 24.1 | 0.00 | 0.00 | 0.00 | 58 | 1015.4 |
| 20260905193119 | 32 | 19 | 9.7 | 19.3 | 0.00 | 0.00 | 0.00 | 58 | 1015.3 |
| 20260905192622 | 32 | 46 | 8.0 | 19.3 | 0.00 | 0.00 | 0.00 | 58 | 1015.4 |
| 20260905192118 | 32 | 60 | 6.4 | 14.5 | 0.00 | 0.00 | 0.00 | 59 | 1015.5 |
| 20260905191641 | 32 | 47 | 3.2 | 20.9 | 0.00 | 0.00 | 0.00 | 62 | 1015.5 |
| 20260905191141 | 32 | 56 | 3.2 | 20.9 | 0.00 | 0.00 | 0.00 | 64 | 1015.7 |
| 20260905190624 | 32 | 14 | 6.4 | 22.5 | 0.00 | 0.00 | 0.00 | 65 | 1015.7 |
| 20260905190129 | 32 | 110 | 4.8 | 22.5 | 0.00 | 0.00 | 0.00 | 65 | 1015.9 |
| 20260905185617 | 32 | 166 | 6.4 | 19.3 | 0.00 | 0.00 | 0.00 | 65 | 1015.9 |
| 20260905185118 | 31 | 56 | 9.7 | 19.3 | 0.00 | 0.00 | 0.00 | 66 | 1016.1 |
| 20260905184622 | 31 | 90 | 9.7 | 17.7 | 0.00 | 0.00 | 0.00 | 65 | 1016.3 |
| 20260905184120 | 31 | 66 | 9.7 | 22.5 | 0.00 | 0.00 | 0.00 | 65 | 1016.5 |
| 20260905183622 | 31 | 80 | 11.3 | 22.5 | 0.00 | 0.00 | 0.00 | 65 | 1016.5 |
| 20260905183142 | 31 | 33 | 6.4 | 20.9 | 0.00 | 0.00 | 0.00 | 64 | 1016.6 |
| 20260905182645 | 31 | 63 | 11.3 | 20.9 | 0.00 | 0.00 | 0.00 | 63 | 1016.6 |
| 20260905182122 | 31 | 57 | 6.4 | 20.9 | 0.00 | 0.00 | 0.00 | 67 | 1016.6 |
| 20260905181626 | 31 | 100 | 3.2 | 20.9 | 0.00 | 0.00 | 0.00 | 68 | 1016.6 |